DW8500 Weather Reports


Display with metric or nautical units.
time (UTC)temp
F
wind
direction
speed
MPH
gust
MPH
rain 1hr
in
rain 24hr
in
rain mn
in
humidity
%
barometer
mb
20260509042710 41 269 0.0 1.0 0.00 0.00 0.00 56 1013.7
20260509042205 41 269 0.0 1.0 0.00 0.00 0.00 56 1013.6
20260509041704 41 264 0.0 0.0 0.00 0.00 0.00 57 1013.5
20260509041203 41 264 0.0 0.0 0.00 0.00 0.00 57 1013.6
20260509040705 41 264 0.0 0.0 0.00 0.00 0.00 56 1013.6
20260509040218 41 264 0.0 1.0 0.00 0.00 0.00 56 1013.5
20260509040136 41 264 0.0 1.0 0.00 0.00 0.00 56 1013.7
20260509035737 42 264 0.0 1.0 0.00 0.00 0.00 55 1013.4
20260509035214 42 264 0.0 1.0 0.00 0.00 0.00 55 1013.5
20260509034713 42 264 0.0 1.0 0.00 0.00 0.00 54 1013.5
20260509034210 43 264 0.0 2.0 0.00 0.00 0.00 53 1013.5
20260509033711 43 264 0.0 3.0 0.00 0.00 0.00 54 1013.4
20260509033231 42 245 1.0 3.0 0.00 0.00 0.00 55 1013.4
20260509032709 42 253 0.0 1.0 0.00 0.00 0.00 56 1013.4
20260509032208 42 303 0.0 1.0 0.00 0.00 0.00 55 1013.3
20260509031705 42 303 0.0 1.0 0.00 0.00 0.00 55 1013.2
20260509031239 42 281 0.0 1.0 0.00 0.00 0.00 55 1013.1
20260509030718 42 277 0.0 1.0 0.00 0.00 0.00 56 1013.2
20260509030235 42 277 0.0 1.0 0.00 0.00 0.00 55 1013.0
20260509030127 42 277 0.0 1.0 0.00 0.00 0.00 55 1013.2
20260509025712 42 277 0.0 1.0 0.00 0.00 0.00 54 1013.0
20260509025211 43 277 0.0 1.0 0.00 0.00 0.00 54 1013.0
20260509024711 43 277 0.0 1.0 0.00 0.00 0.00 53 1013.0
20260509024210 43 277 0.0 1.0 0.00 0.00 0.00 53 1013.0
20260509023712 43 277 0.0 1.0 0.00 0.00 0.00 54 1012.9
20260509023231 43 277 0.0 1.0 0.00 0.00 0.00 53 1013.0
20260509022706 44 277 0.0 1.0 0.00 0.00 0.00 52 1012.9
20260509022223 44 277 0.0 1.0 0.00 0.00 0.00 51 1013.0
20260509021704 44 277 0.0 0.0 0.00 0.00 0.00 51 1012.9
20260509021203 44 277 0.0 1.0 0.00 0.00 0.00 51 1013.0
20260509020703 45 277 0.0 1.0 0.00 0.00 0.00 51 1012.8
20260509020200 45 212 0.0 1.0 0.00 0.00 0.00 51 1012.7
20260509015702 45 212 0.0 1.0 0.00 0.00 0.00 50 1012.7
20260509015220 45 212 0.0 0.0 0.00 0.00 0.00 49 1012.6
20260509014700 46 257 0.0 1.0 0.00 0.00 0.00 48 1012.5
20260509014217 46 257 0.0 1.0 0.00 0.00 0.00 47 1012.3
20260509013718 46 265 0.0 2.0 0.00 0.00 0.00 47 1012.3
20260509013209 46 265 0.0 2.0 0.00 0.00 0.00 47 1012.1
20260509012725 46 214 0.0 1.0 0.00 0.00 0.00 46 1012.2
20260509012207 47 214 0.0 1.0 0.00 0.00 0.00 45 1012.1
20260509011706 47 237 0.0 1.0 0.00 0.00 0.00 44 1012.0
20260509011225 47 264 0.0 1.0 0.00 0.00 0.00 44 1011.9
20260509010706 48 307 0.0 1.0 0.00 0.00 0.00 43 1011.8
20260509010205 48 240 0.0 1.0 0.00 0.00 0.00 43 1011.9
20260509005706 48 296 0.0 1.0 0.00 0.00 0.00 42 1011.7
20260509005224 49 258 0.0 3.0 0.00 0.00 0.00 41 1011.6
20260509004740 49 265 0.0 4.0 0.00 0.00 0.00 40 1011.4
20260509004637 49 265 0.0 4.0 0.00 0.00 0.00 40 1011.6
20260509004216 49 104 1.0 3.0 0.00 0.00 0.00 40 1011.3
20260509003715 49 270 1.0 4.0 0.00 0.00 0.00 40 1011.3
20260509003211 50 309 1.0 4.0 0.00 0.00 0.00 39 1011.4
20260509003124 49 254 0.0 4.0 0.00 0.00 0.00 39 1011.7
20260509002711 50 272 2.0 5.0 0.00 0.00 0.00 39 1011.2
20260509002229 50 359 1.0 5.0 0.00 0.00 0.00 38 1011.2
20260509001727 50 275 1.0 4.0 0.00 0.00 0.00 38 1011.2
20260509001203 50 255 1.0 4.0 0.00 0.00 0.00 37 1011.1
20260509000704 51 16 1.0 6.0 0.00 0.00 0.00 37 1011.0
20260509000204 51 240 1.0 6.0 0.00 0.00 0.00 36 1010.9
20260508235718 51 17 1.0 6.0 0.00 0.00 0.00 36 1011.0
20260508235234 51 255 2.0 6.0 0.00 0.00 0.00 35 1010.9
20260508234712 52 309 2.0 5.0 0.00 0.00 0.00 34 1010.8
20260508234633 51 290 1.0 5.0 0.00 0.00 0.00 34 1010.9
20260508234208 52 231 1.0 3.0 0.00 0.00 0.00 35 1010.6
20260508233707 52 45 1.0 9.0 0.00 0.00 0.00 34 1010.5
20260508233206 52 329 1.0 9.0 0.00 0.00 0.00 33 1010.5
20260508232725 53 286 3.0 6.0 0.00 0.00 0.00 33 1010.4
20260508232203 53 248 2.0 8.0 0.00 0.00 0.00 33 1010.3
20260508231702 53 297 2.0 8.0 0.00 0.00 0.00 33 1010.3
20260508231200 54 288 2.0 7.0 0.00 0.00 0.00 32 1010.2
20260508230716 54 326 3.0 7.0 0.00 0.00 0.00 32 1010.2
20260508230233 54 270 2.0 9.0 0.00 0.00 0.00 31 1010.2
20260508230128 53 264 1.0 9.0 0.00 0.00 0.00 31 1010.3
20260508225711 54 232 4.0 9.0 0.00 0.00 0.00 31 1010.2
20260508225229 54 285 3.0 8.0 0.00 0.00 0.00 29 1010.0
20260508224710 55 229 3.0 10.0 0.00 0.00 0.00 28 1009.9
20260508224227 55 285 2.0 9.0 0.00 0.00 0.00 27 1009.8
20260508223708 55 312 1.0 7.0 0.00 0.00 0.00 27 1009.9
20260508223206 55 312 1.0 4.0 0.00 0.00 0.00 28 1009.8
20260508222706 55 276 2.0 6.0 0.00 0.00 0.00 26 1009.8
20260508222219 56 294 3.0 10.0 0.00 0.00 0.00 26 1009.8
20260508221720 56 314 2.0 11.0 0.00 0.00 0.00 26 1009.7
20260508221637 55 281 1.0 11.0 0.00 0.00 0.00 27 1009.9
20260508221216 57 305 1.0 5.0 0.00 0.00 0.00 27 1009.6
20260508220716 57 312 1.0 3.0 0.00 0.00 0.00 27 1009.6
20260508220234 56 209 1.0 4.0 0.00 0.00 0.00 27 1009.5
20260508215710 56 276 1.0 4.0 0.00 0.00 0.00 28 1009.4
20260508215208 56 328 0.0 3.0 0.00 0.00 0.00 26 1009.4
20260508214728 56 262 1.0 3.0 0.00 0.00 0.00 26 1009.3
20260508214206 56 321 1.0 2.0 0.00 0.00 0.00 26 1009.2
20260508213707 57 37 1.0 5.0 0.00 0.00 0.00 25 1009.2
20260508213220 57 259 1.0 6.0 0.00 0.00 0.00 25 1009.3
20260508212701 57 340 2.0 6.0 0.00 0.00 0.00 24 1009.2
20260508212201 57 236 2.0 6.0 0.00 0.00 0.00 24 1009.2
20260508211702 57 252 3.0 6.0 0.00 0.00 0.00 25 1009.3
20260508211221 57 37 2.0 7.0 0.00 0.00 0.00 24 1009.2
20260508210659 58 313 2.0 7.0 0.00 0.00 0.00 23 1009.1
20260508210219 58 247 1.0 8.0 0.00 0.00 0.00 24 1009.2
20260508210135 58 287 1.0 8.0 0.00 0.00 0.00 24 1009.3
20260508205717 58 56 2.0 8.0 0.00 0.00 0.00 22 1009.2
20260508205215 58 268 4.0 10.0 0.00 0.00 0.00 21 1009.1
20260508204715 58 288 3.0 8.0 0.00 0.00 0.00 22 1009.1
20260508204629 58 323 2.0 8.0 0.00 0.00 0.00 22 1009.2
20260508204228 58 251 2.0 8.0 0.00 0.00 0.00 23 1009.1
20260508203725 58 352 2.0 8.0 0.00 0.00 0.00 21 1009.0
20260508203202 59 310 2.0 10.0 0.00 0.00 0.00 22 1009.0
20260508202703 59 163 3.0 10.0 0.00 0.00 0.00 20 1008.8
20260508202222 60 8 3.0 10.0 0.00 0.00 0.00 21 1008.8
20260508201702 60 291 4.0 10.0 0.00 0.00 0.00 20 1008.7
20260508201201 60 301 3.0 8.0 0.00 0.00 0.00 19 1008.7
20260508200702 59 263 2.0 8.0 0.00 0.00 0.00 22 1008.7
20260508200200 59 114 3.0 8.0 0.00 0.00 0.00 21 1008.8
20260508195714 58 195 2.0 11.0 0.00 0.00 0.00 21 1008.7
20260508195212 58 221 5.0 11.0 0.00 0.00 0.00 22 1008.7
20260508194711 59 72 6.0 11.0 0.00 0.00 0.00 20 1008.7
20260508194627 58 229 5.0 11.0 0.00 0.00 0.00 20 1008.8
20260508194207 59 186 4.0 11.0 0.00 0.00 0.00 20 1008.8
20260508193707 59 278 3.0 11.0 0.00 0.00 0.00 21 1008.8
20260508193204 59 276 3.0 7.0 0.00 0.00 0.00 23 1008.8
20260508192705 59 281 2.0 10.0 0.00 0.00 0.00 24 1008.9
20260508192201 57 330 2.0 10.0 0.00 0.00 0.00 22 1008.8
20260508191702 57 260 2.0 6.0 0.00 0.00 0.00 22 1008.8
20260508191159 57 280 3.0 8.0 0.00 0.00 0.00 22 1008.9
20260508190700 57 259 3.0 8.0 0.00 0.00 0.00 24 1008.9
20260508190218 57 270 2.0 10.0 0.00 0.00 0.00 23 1009.0
20260508190130 56 287 2.0 10.0 0.00 0.00 0.00 23 1009.0
20260508185659 57 256 3.0 10.0 0.00 0.00 0.00 22 1009.0
20260508185212 57 1 4.0 10.0 0.00 0.00 0.00 22 1008.9
20260508184711 57 44 3.0 14.0 0.00 0.00 0.00 21 1008.9
20260508184651 56 326 2.0 14.0 0.00 0.00 0.00 21 1009.2
20260508184208 57 294 2.0 14.0 0.00 0.00 0.00 23 1008.9
20260508183708 58 247 2.0 11.0 0.00 0.00 0.00 21 1009.0
20260508183207 58 302 3.0 14.0 0.00 0.00 0.00 22 1009.0
20260508182710 57 221 4.0 10.0 0.00 0.00 0.00 23 1009.0
20260508182208 56 261 3.0 10.0 0.00 0.00 0.00 21 1009.0
20260508181729 56 288 3.0 8.0 0.00 0.00 0.00 24 1009.1
20260508181205 56 309 3.0 10.0 0.00 0.00 0.00 21 1008.9
20260508180704 56 252 4.0 10.0 0.00 0.00 0.00 22 1009.0
20260508180238 56 259 3.0 10.0 0.00 0.00 0.00 23 1009.0
20260508180136 56 268 2.0 10.0 0.00 0.00 0.00 23 1009.0
20260508175735 56 51 4.0 8.0 0.00 0.00 0.00 21 1008.9
20260508175231 56 256 3.0 11.0 0.00 0.00 0.00 21 1008.9
20260508174711 56 17 4.0 12.0 0.00 0.00 0.00 20 1009.0
20260508174209 56 38 3.0 12.0 0.00 0.00 0.00 22 1009.0
20260508173710 57 257 5.0 12.0 0.00 0.00 0.00 23 1009.0
20260508173208 57 268 1.0 14.0 0.00 0.00 0.00 21 1009.0
20260508172729 57 63 6.0 14.0 0.00 0.00 0.00 20 1008.9
20260508172208 57 186 4.0 10.0 0.00 0.00 0.00 20 1008.9
20260508171705 57 237 2.0 12.0 0.00 0.00 0.00 20 1008.9
20260508171202 56 263 5.0 15.0 0.00 0.00 0.00 20 1009.0
20260508170705 56 18 6.0 15.0 0.00 0.00 0.00 20 1008.8
20260508170202 57 254 2.0 15.0 0.00 0.00 0.00 23 1008.9
20260508165700 57 292 5.0 15.0 0.00 0.00 0.00 22 1008.8
20260508165218 57 176 3.0 11.0 0.00 0.00 0.00 24 1008.9
20260508164204 55 235 4.0 9.0 0.00 0.00 0.00 24 1009.0
20260508163705 55 247 1.0 6.0 0.00 0.00 0.00 26 1009.0
20260508163202 55 266 1.0 9.0 0.00 0.00 0.00 24 1008.9
20260508162703 55 320 4.0 11.0 0.00 0.00 0.00 24 1008.9
20260508162200 55 321 5.0 11.0 0.00 0.00 0.00 25 1009.0
20260508161700 56 233 1.0 7.0 0.00 0.00 0.00 26 1008.9
20260508161213 56 215 3.0 7.0 0.00 0.00 0.00 25 1009.0
20260508160713 56 255 4.0 7.0 0.00 0.00 0.00 25 1008.9
20260508160210 56 267 2.0 6.0 0.00 0.00 0.00 24 1009.0
20260508160127 55 262 2.0 6.0 0.00 0.00 0.00 24 1009.1
20260508155708 57 265 3.0 6.0 0.00 0.00 0.00 28 1009.0
20260508155204 57 262 1.0 8.0 0.00 0.00 0.00 27 1009.0
20260508154706 57 192 1.0 8.0 0.00 0.00 0.00 25 1009.1
20260508154202 56 118 3.0 7.0 0.00 0.00 0.00 24 1009.1
20260508153703 57 283 3.0 7.0 0.00 0.00 0.00 24 1009.1
20260508153240 56 41 3.0 7.0 0.00 0.00 0.00 25 1009.2
20260508153133 56 254 2.0 7.0 0.00 0.00 0.00 27 1009.4
20260508152718 56 65 2.0 7.0 0.00 0.00 0.00 26 1009.3
20260508152211 56 109 2.0 7.0 0.00 0.00 0.00 26 1009.3
20260508151712 56 275 2.0 7.0 0.00 0.00 0.00 27 1009.4
20260508151628 55 314 1.0 7.0 0.00 0.00 0.00 26 1009.5
20260508151228 55 230 3.0 8.0 0.00 0.00 0.00 26 1009.4
20260508150725 55 326 3.0 9.0 0.00 0.00 0.00 25 1009.3
20260508150203 55 340 4.0 9.0 0.00 0.00 0.00 26 1009.4
20260508145722 55 293 2.0 8.0 0.00 0.00 0.00 27 1009.4
20260508145201 54 39 1.0 8.0 0.00 0.00 0.00 29 1009.5
20260508144703 53 278 3.0 8.0 0.00 0.00 0.00 30 1009.6
20260508144220 53 305 3.0 6.0 0.00 0.00 0.00 30 1009.7
20260508143713 52 243 2.0 5.0 0.00 0.00 0.00 31 1009.8
20260508143210 52 188 1.0 9.0 0.00 0.00 0.00 33 1009.9
20260508143129 51 235 1.0 9.0 0.00 0.00 0.00 33 1010.0
20260508142708 51 288 3.0 9.0 0.00 0.00 0.00 32 1010.0
20260508142225 51 259 2.0 5.0 0.00 0.00 0.00 33 1010.0
20260508141705 50 321 1.0 7.0 0.00 0.00 0.00 34 1010.1
20260508141223 50 245 2.0 7.0 0.00 0.00 0.00 34 1010.2
20260508140702 50 265 2.0 7.0 0.00 0.00 0.00 34 1010.3
20260508140200 50 68 3.0 7.0 0.00 0.00 0.00 33 1010.2
20260508135659 50 276 2.0 8.0 0.00 0.00 0.00 34 1010.2
20260508135212 50 137 2.0 8.0 0.00 0.00 0.00 32 1010.3
20260508134711 51 293 2.0 13.0 0.00 0.00 0.00 32 1010.2
20260508134138 51 269 2.0 11.0 0.00 0.00 0.00 32 1010.1
20260508133200 51 211 3.0 11.0 0.00 0.00 0.00 32 1010.1
20260508132701 50 252 4.0 11.0 0.00 0.00 0.00 33 1010.1
20260508132220 50 274 2.0 11.0 0.00 0.00 0.00 33 1010.2
20260508131714 50 56 1.0 5.0 0.00 0.00 0.00 35 1010.1
20260508131632 49 306 0.0 5.0 0.00 0.00 0.00 35 1010.3
20260508131211 50 268 2.0 5.0 0.00 0.00 0.00 34 1010.2
20260508130711 50 94 2.0 5.0 0.00 0.00 0.00 33 1010.1
20260508130228 50 271 2.0 5.0 0.00 0.00 0.00 36 1010.2
20260508130119 49 322 0.0 5.0 0.00 0.00 0.00 36 1010.3
20260508125726 50 250 0.0 6.0 0.00 0.00 0.00 35 1010.1
20260508125203 50 232 3.0 9.0 0.00 0.00 0.00 34 1010.2
20260508124722 50 248 1.0 9.0 0.00 0.00 0.00 34 1010.2
20260508124219 50 297 5.0 9.0 0.00 0.00 0.00 32 1010.1
20260508123659 50 285 2.0 9.0 0.00 0.00 0.00 35 1010.0
20260508123234 49 3 1.0 9.0 0.00 0.00 0.00 36 1010.1
20260508123131 49 271 1.0 9.0 0.00 0.00 0.00 35 1010.2
20260508122711 49 341 1.0 9.0 0.00 0.00 0.00 36 1010.1
20260508122208 49 297 2.0 9.0 0.00 0.00 0.00 35 1010.1
20260508121706 48 269 3.0 6.0 0.00 0.00 0.00 37 1010.0
20260508121204 48 256 1.0 5.0 0.00 0.00 0.00 37 1009.9
20260508120703 48 258 1.0 4.0 0.00 0.00 0.00 38 1010.0
20260508120202 47 276 1.0 8.0 0.00 0.00 0.00 38 1010.1
20260508115702 47 253 2.0 8.0 0.00 0.00 0.00 37 1010.0
20260508115317 48 198 2.0 6.0 0.00 0.00 0.00 38 1010.0
20260508114711 48 293 3.0 7.0 0.00 0.00 0.00 37 1010.0
20260508114220 47 250 2.0 8.0 0.00 0.00 0.00 38 1009.8
20260508113700 47 314 2.0 8.0 0.00 0.00 0.00 39 1009.8
20260508113158 46 311 2.0 7.0 0.00 0.00 0.00 40 1009.8
20260508112700 46 319 2.0 4.0 0.00 0.00 0.00 42 1009.7
20260508112216 45 316 0.0 6.0 0.00 0.00 0.00 43 1009.7
20260508111225 44 137 1.0 7.0 0.00 0.00 0.00 45 1009.6
20260508110721 43 326 1.0 5.0 0.00 0.00 0.00 47 1009.6
20260508110217 41 252 1.0 5.0 0.00 0.00 0.00 49 1009.5
20260508110134 41 122 0.0 3.0 0.00 0.00 0.00 50 1009.8
20260508105716 40 248 1.0 2.0 0.00 0.00 0.00 51 1009.6
20260508105213 40 232 0.0 1.0 0.00 0.00 0.00 52 1009.5
20260508104732 40 232 0.0 1.0 0.00 0.00 0.00 52 1009.5
20260508104208 39 232 0.0 1.0 0.00 0.00 0.00 53 1009.5
20260508103728 39 239 0.0 1.0 0.00 0.00 0.00 53 1009.4
20260508103206 39 241 0.0 2.0 0.00 0.00 0.00 55 1009.4
20260508102707 38 250 0.0 2.0 0.00 0.00 0.00 53 1009.4
20260508102205 38 257 0.0 2.0 0.00 0.00 0.00 56 1009.4
20260508101703 37 252 0.0 2.0 0.00 0.00 0.00 57 1009.4
20260508101202 37 251 0.0 1.0 0.00 0.00 0.00 57 1009.2
20260508100702 37 239 0.0 0.0 0.00 0.00 0.00 57 1009.1
20260508100200 37 239 0.0 0.0 0.00 0.00 0.00 58 1009.1
20260508095700 37 239 0.0 0.0 0.00 0.00 0.00 57 1009.0
20260508095236 37 239 0.0 0.0 0.00 0.00 0.00 57 1009.0
20260508094715 37 239 0.0 0.0 0.00 0.00 0.00 56 1008.9
20260508094630 37 239 0.0 0.0 0.00 0.00 0.00 56 1009.1
20260508094211 37 239 0.0 0.0 0.00 0.00 0.00 57 1009.0
20260508093709 37 239 0.0 0.0 0.00 0.00 0.00 57 1009.1
20260508093207 37 239 0.0 0.0 0.00 0.00 0.00 55 1008.9
20260508092707 38 239 0.0 0.0 0.00 0.00 0.00 53 1008.8
20260508092202 38 239 0.0 0.0 0.00 0.00 0.00 54 1008.8
20260508091723 38 238 0.0 0.0 0.00 0.00 0.00 53 1008.8
20260508091201 39 237 0.0 0.0 0.00 0.00 0.00 53 1008.9
20260508090702 39 237 0.0 0.0 0.00 0.00 0.00 52 1008.8
20260508090221 39 237 0.0 0.0 0.00 0.00 0.00 53 1008.8
20260508085659 40 237 0.0 0.0 0.00 0.00 0.00 51 1008.7
20260508085158 40 237 0.0 0.0 0.00 0.00 0.00 49 1008.7
20260508084701 40 237 0.0 0.0 0.00 0.00 0.00 48 1008.7
20260508084158 41 237 0.0 1.0 0.00 0.00 0.00 47 1008.7
20260508083658 41 237 0.0 2.0 0.00 0.00 0.00 46 1008.6
20260508083212 41 58 0.0 2.0 0.00 0.00 0.00 45 1008.6
20260508083128 40 302 0.0 2.0 0.00 0.00 0.00 46 1008.8
20260508082710 41 269 0.0 2.0 0.00 0.00 0.00 48 1008.6
20260508082207 41 187 0.0 3.0 0.00 0.00 0.00 45 1008.6
20260508081727 41 263 1.0 4.0 0.00 0.00 0.00 46 1008.6
20260508081201 42 257 0.0 4.0 0.00 0.00 0.00 46 1008.6
20260508080703 42 231 1.0 4.0 0.00 0.00 0.00 46 1008.7
20260508080201 42 272 2.0 4.0 0.00 0.00 0.00 45 1008.5
20260508075721 41 269 1.0 4.0 0.00 0.00 0.00 45 1008.4
20260508075218 41 274 1.0 3.0 0.00 0.00 0.00 47 1008.3
20260508074731 41 259 1.0 3.0 0.00 0.00 0.00 46 1008.1
20260508074626 40 197 0.0 3.0 0.00 0.00 0.00 47 1008.1
20260508074206 41 245 0.0 3.0 0.00 0.00 0.00 47 1008.0
20260508073706 41 243 0.0 2.0 0.00 0.00 0.00 48 1008.1
20260508073202 41 235 0.0 2.0 0.00 0.00 0.00 47 1008.1
20260508072703 41 243 1.0 4.0 0.00 0.00 0.00 47 1008.0
20260508072200 40 271 1.0 4.0 0.00 0.00 0.00 48 1008.0
20260508071701 40 273 0.0 1.0 0.00 0.00 0.00 49 1008.0
20260508071200 40 236 0.0 1.0 0.00 0.00 0.00 50 1008.1
20260508070659 40 239 0.0 1.0 0.00 0.00 0.00 49 1008.0
20260508070216 40 239 0.0 1.0 0.00 0.00 0.00 48 1008.0
20260508070130 40 239 0.0 1.0 0.00 0.00 0.00 48 1008.1
20260508065712 41 239 0.0 1.0 0.00 0.00 0.00 48 1008.0
20260508065208 41 255 0.0 1.0 0.00 0.00 0.00 47 1007.9
20260508064703 41 255 0.0 1.0 0.00 0.00 0.00 47 1008.0
20260508064202 41 250 0.0 1.0 0.00 0.00 0.00 47 1007.9
20260508063703 41 250 0.0 2.0 0.00 0.00 0.00 47 1007.9
20260508063202 42 250 1.0 2.0 0.00 0.00 0.00 48 1008.0
20260508062724 42 244 0.0 1.0 0.00 0.00 0.00 46 1008.0
20260508062202 42 246 0.0 1.0 0.00 0.00 0.00 46 1008.1
20260508061722 42 186 0.0 1.0 0.00 0.00 0.00 46 1008.1
20260508061159 42 235 0.0 0.0 0.00 0.00 0.00 46 1008.1
20260508060659 42 226 0.0 0.0 0.00 0.00 0.00 45 1008.2
20260508060212 42 226 0.0 0.0 0.00 0.00 0.00 45 1008.3
20260508060132 42 226 0.0 0.0 0.00 0.00 0.00 44 1008.4
20260508055714 43 226 0.0 0.0 0.00 0.00 0.00 44 1008.3
20260508055211 43 227 0.0 1.0 0.00 0.00 0.00 43 1008.3
20260508054711 43 226 0.0 1.0 0.00 0.00 0.00 43 1008.4
20260508054627 43 226 0.0 1.0 0.00 0.00 0.00 44 1008.6
20260508054229 44 144 0.0 2.0 0.00 0.00 0.00 43 1008.3
20260508053708 44 207 0.0 2.0 0.00 0.00 0.00 43 1008.4
20260508053205 44 236 1.0 2.0 0.00 0.00 0.00 42 1008.5
20260508052705 44 252 1.0 2.0 0.00 0.00 0.00 42 1008.5
20260508052204 44 224 1.0 4.0 0.00 0.00 0.00 42 1008.4
20260508051705 43 230 1.0 4.0 0.00 0.00 0.00 43 1008.5
20260508051204 43 247 0.0 1.0 0.00 0.00 0.00 46 1008.6
20260508050705 43 297 0.0 1.0 0.00 0.00 0.00 45 1008.6
20260508050202 43 302 0.0 0.0 0.00 0.00 0.00 48 1008.7
20260508045720 44 301 0.0 0.0 0.00 0.00 0.00 47 1008.7
20260508045157 44 302 0.0 1.0 0.00 0.00 0.00 47 1008.7
20260508044715 45 301 0.0 1.0 0.00 0.00 0.00 42 1008.8
20260508044630 44 302 0.0 1.0 0.00 0.00 0.00 42 1008.7
20260508044230 45 309 0.0 2.0 0.00 0.00 0.00 43 1008.7
20260508043709 45 309 0.0 2.0 0.00 0.00 0.00 41 1008.7
20260508043205 45 235 1.0 2.0 0.00 0.00 0.00 40 1008.8